Theta_e
331 333 334 334 334 333 333 334 334 334 334 333 332 331 330 329 329 328 326 327 329 332 334 335 335 333 333 330 328 330 334 334 333 332 330 329 329 328 327 326 325 324 323
328 329 329 329 330 330 331 331 331 330 331 330 329 328 327 327 327 326 328 326 323 324 327 331 334 336 335 334 331 326 328 332 326 334 333 330 328 329 329 328 327 325 325
321 323 326 327 326 326 326 326 326 326 325 327 328 328 327 327 325 323 323 326 326 322 323 326 327 332 334 334 333 331 326 327 329 334 333 328 327 328 328 329 328 327 326
316 317 317 318 318 318 318 319 319 319 320 321 320 320 322 324 322 322 322 325 326 325 323 324 324 326 333 333 334 334 330 327 330 329 328 326 327 327 328 329 329 328 328
310 310 311 311 311 311 311 312 312 312 313 313 314 314 315 315 316 318 317 318 321 324 325 324 320 320 324 329 329 332 332 332 329 328 328 329 325 324 324 326 330 329 328
308 308 309 309 309 309 310 310 310 310 310 310 310 310 311 311 311 313 314 314 314 314 320 320 322 324 329 329 328 328 329 329 330 329 327 328 328 326 325 324 330 330 329
303 304 304 304 304 304 304 304 305 305 306 307 308 309 310 310 309 311 313 315 315 317 319 321 322 322 326 327 328 327 327 327 327 327 328 328 326 326 325 325 329 330 329
301 301 301 301 301 301 301 301 301 302 302 303 304 305 310 309 309 311 314 316 315 315 316 319 320 320 322 325 328 328 328 328 330 330 330 329 326 325 325 324 325 329 329
301 302 302 302 302 302 302 302 302 302 301 302 302 303 305 307 306 308 308 311 312 314 314 313 315 315 316 320 323 325 327 328 329 329 328 328 328 328 328 325 324 324 328
302 302 302 302 302 303 303 303 303 303 303 302 302 300 301 301 302 304 306 306 306 306 307 309 309 309 308 311 317 320 323 324 325 325 324 324 326 326 328 328 327 324 327
301 302 302 302 302 302 303 303 303 304 304 302 300 299 299 298 300 300 301 302 302 302 302 305 305 305 306 306 308 310 316 319 322 323 324 325 327 327 329 329 329 327 328
301 301 301 301 301 301 302 302 302 301 301 299 298 298 298 298 298 298 297 297 298 300 300 303 302 303 304 305 306 306 307 314 318 318 318 321 323 326 327 327 327 327 325
300 300 300 300 300 300 300 300 300 300 299 299 298 298 298 297 295 295 295 294 294 297 300 300 300 301 301 302 303 304 304 306 308 314 315 316 318 322 324 325 325 326 326
299 299 298 298 298 298 297 296 295 295 296 297 297 297 296 295 295 294 293 291 292 296 297 297 298 299 300 301 301 302 302 303 305 306 308 312 314 315 317 320 322 323 324
297 296 295 294 294 293 292 292 291 291 292 293 293 294 294 294 294 293 293 290 289 293 295 296 295 296 296 297 299 299 300 301 301 303 304 306 308 312 314 316 317 318 321
295 293 291 290 290 290 290 289 288 288 287 288 288 288 290 291 292 292 292 291 289 289 292 292 291 292 293 294 295 296 296 299 299 301 304 305 306 307 309 312 314 315 316
292 291 290 289 288 288 288 287 287 286 286 285 285 285 286 287 288 289 290 290 289 289 288 289 290 290 291 291 291 293 293 295 296 297 300 304 305 307 309 310 312 314 316
291 289 288 288 287 287 287 286 286 285 284 284 284 284 284 284 284 285 286 287 287 287 288 287 287 287 286 286 289 291 291 290 293 294 296 297 301 302 304 307 309 312 314
289 288 287 287 287 286 286 286 285 284 283 283 283 282 283 282 282 282 282 282 282 282 282 282 282 282 282 282 284 290 290 289 291 290 293 295 296 297 298 300 302 304 308
287 286 286 286 286 286 286 285 284 283 282 282 282 282 281 281 281 281 281 281 281 281 281 281 281 281 281 282 281 284 289 289 285 288 289 288 293 293 294 296 296 297 299
286 285 285 286 286 285 285 284 283 282 281 281 281 281 281 280 280 281 280 281 280 280 280 279 279 280 280 281 281 281 283 288 284 283 284 284 288 289 287 286 287 286 288
285 284 285 285 285 284 283 283 281 281 281 281 281 281 280 280 280 280 280 280 280 280 280 280 281 281 280 279 279 279 281 282 282 282 283 282 284 289 286 285 285 285 285
284 284 284 284 284 283 282 281 280 281 281 281 281 280 279 279 279 279 279 279 279 279 280 279 279 278 278 278 279 280 280 280 279 281 282 281 282 287 285 282 282 283 284
283 283 283 283 282 281 281 280 280 280 280 280 280 279 279 278 278 278 278 278 279 279 279 278 278 278 278 278 279 279 279 279 279 280 282 281 282 282 285 281 282 282 283
282 283 282 282 282 281 280 280 279 279 279 280 280 279 278 278 278 277 278 278 277 277 277 276 276 277 277 278 278 279 280 280 279 279 279 281 281 282 283 281 281 282 282
281 281 281 280 280 280 279 279 278 278 278 278 277 277 277 278 277 277 277 277 277 276 275 275 275 276 277 277 277 278 277 278 277 278 278 279 280 280 281 281 281 281 281
Wind_Speed
9 12 12 13 13 15 16 16 15 14 14 14 14 15 16 19 21 21 22 20 20 21 23 24 27 27 26 25 27 25 26 23 25 26 24 22 25 26 27 28 28 27 26
11 12 13 15 16 15 16 16 16 16 18 20 22 23 23 24 27 29 27 25 23 23 23 24 26 25 25 27 29 23 32 28 33 33 28 24 26 28 30 31 32 31 30
6 9 10 12 13 13 15 15 17 19 20 22 25 26 26 25 25 27 29 28 26 25 24 25 25 24 24 27 28 33 34 33 33 37 33 29 38 32 32 34 35 34 34
3 4 6 7 9 11 12 14 15 17 18 20 21 21 21 22 23 24 24 26 26 27 26 25 25 26 24 27 31 32 39 38 36 39 36 37 39 38 34 35 38 37 37
2 3 4 6 7 9 11 12 14 16 17 18 19 19 19 19 21 21 22 24 24 25 26 27 27 26 25 24 28 32 33 35 37 38 38 41 45 44 44 42 39 39 40
6 7 8 9 10 12 13 14 16 17 20 21 22 21 20 19 18 19 21 21 22 21 22 23 22 20 17 20 20 22 29 35 36 36 37 42 44 44 41 49 42 40 41
6 7 8 9 10 11 13 14 14 16 17 19 19 17 15 16 13 14 14 13 12 13 13 14 15 15 15 19 18 20 20 26 28 31 31 35 35 40 45 46 40 41 41
5 7 8 9 9 10 11 12 12 12 13 16 15 14 7 9 9 10 10 10 10 9 10 12 11 12 14 14 14 17 23 25 29 30 27 24 27 31 38 44 41 39 39
5 6 6 7 8 9 11 14 16 17 16 15 15 8 5 3 14 9 7 9 12 12 9 9 10 9 10 15 17 16 22 29 32 35 31 33 37 38 34 39 44 40 38
5 6 8 10 13 14 15 16 17 17 17 16 11 9 7 9 4 10 9 12 18 15 17 15 16 14 13 14 14 19 20 19 23 27 28 27 32 34 37 43 44 48 43
5 8 10 12 13 14 14 15 15 15 15 14 13 12 10 8 10 12 17 15 24 20 18 19 21 17 17 17 18 19 21 26 25 24 22 22 28 32 34 34 42 42 43
7 9 11 11 12 13 14 15 16 15 14 12 10 9 8 9 11 11 17 19 20 17 20 10 17 19 19 18 21 21 24 29 32 33 32 24 18 25 31 34 36 38 39
6 7 8 9 10 12 12 13 12 12 11 10 10 9 8 8 10 13 16 16 15 17 7 12 14 15 17 17 18 20 23 23 29 35 34 31 27 23 22 23 24 29 40
5 7 7 9 9 10 11 12 12 12 11 10 9 8 7 7 8 10 12 16 16 8 9 4 9 12 16 19 18 16 19 21 21 24 30 33 30 31 30 28 24 23 27
4 5 6 7 9 10 11 11 11 11 11 10 9 8 8 9 10 10 12 10 10 7 10 11 15 16 20 19 17 13 10 15 15 17 19 23 27 29 31 33 30 27 25
3 5 5 5 6 8 9 10 10 10 10 10 9 9 9 9 9 10 9 9 7 8 8 12 19 22 21 15 9 5 4 9 11 10 12 15 17 20 23 29 33 35 30
2 3 2 4 6 8 9 10 10 10 9 9 9 9 9 9 8 9 8 7 7 9 8 11 14 14 10 7 4 2 5 3 4 4 4 10 13 17 20 21 23 25 23
1 2 2 4 5 8 9 9 9 8 7 7 8 8 9 8 8 8 8 8 8 9 9 9 8 13 13 11 7 3 8 5 3 4 2 2 5 6 9 13 17 20 21
2 1 2 3 6 7 7 7 6 6 6 7 8 8 9 9 8 9 9 8 7 7 7 6 7 10 10 8 8 4 9 10 7 7 5 5 5 5 5 6 7 8 13
3 2 3 5 5 5 3 4 5 5 6 7 7 8 9 10 10 10 11 10 8 8 8 9 10 12 14 13 12 10 6 10 16 6 8 7 3 6 5 5 6 7 7
5 3 2 5 3 2 3 4 4 3 5 6 6 8 8 10 11 12 13 13 11 11 11 12 15 17 21 21 21 18 11 8 12 11 8 12 3 4 11 11 12 13 12
6 5 3 3 4 3 3 4 4 5 6 5 7 8 7 8 11 12 13 14 15 15 17 19 20 21 23 22 22 19 17 12 4 16 13 19 5 5 10 18 17 17 17
8 7 5 4 4 4 4 6 5 6 7 7 9 9 8 9 11 13 13 14 15 17 19 20 20 20 21 22 22 21 18 14 20 23 13 21 12 8 8 21 19 19 17
10 8 6 5 4 5 6 6 6 7 8 10 12 12 11 10 12 13 13 14 15 17 19 20 19 19 20 20 21 22 19 14 12 25 21 23 22 8 4 21 20 21 20
10 9 8 7 6 7 6 7 7 7 8 12 14 13 11 11 13 14 13 14 15 18 19 18 17 18 18 19 19 18 23 21 16 23 26 24 27 12 4 19 18 21 21
10 10 9 8 8 9 9 8 8 7 7 9 10 12 13 12 12 13 13 14 15 17 16 15 15 16 18 20 21 23 24 25 24 14 26 23 25 26 8 18 20 24 26
Wind_Direction
243 249 254 259 264 275 277 274 274 277 281 280 282 284 287 289 293 288 286 284 278 271 262 261 257 253 253 250 249 246 245 245 248 240 234 239 243 240 239 237 234 234 229
236 240 248 256 263 260 261 269 266 271 273 279 282 286 286 289 288 289 287 281 273 270 267 261 256 256 252 247 239 216 249 230 242 240 230 229 244 242 239 238 238 236 234
249 253 259 263 271 278 280 282 284 284 282 286 282 283 283 283 284 284 280 279 274 267 263 261 258 255 253 247 251 246 229 230 237 239 235 239 247 243 242 239 237 237 238
278 280 285 293 296 298 297 296 294 294 293 290 289 289 288 283 282 280 282 277 272 268 266 263 262 257 250 246 243 242 241 238 247 242 244 249 249 245 243 242 239 236 238
319 309 308 308 308 308 309 309 311 308 306 304 303 304 301 294 288 282 281 281 275 268 265 264 264 266 264 259 249 246 250 246 241 242 250 253 253 253 249 251 243 238 239
350 343 338 331 324 319 316 313 312 310 309 307 307 306 306 304 296 284 275 275 273 268 263 264 269 266 263 253 250 238 243 249 248 249 254 249 248 253 245 241 245 241 240
358 351 344 338 333 328 324 320 316 313 311 307 309 302 296 295 291 284 283 282 272 264 262 264 264 263 252 254 239 226 225 238 243 246 257 251 245 250 247 243 245 242 241
358 352 345 338 334 327 320 318 318 321 324 332 336 342 346 312 274 291 283 281 274 269 263 262 264 260 247 245 232 224 221 226 222 223 232 243 243 241 250 244 245 245 245
12 6 2 357 355 352 353 355 353 350 348 346 341 345 345 308 312 287 299 286 276 276 276 286 278 277 273 247 242 236 226 224 227 244 254 255 250 250 252 246 243 244 245
27 22 20 18 17 17 14 9 4 358 355 350 347 328 288 282 297 296 286 310 296 305 298 291 292 294 287 274 255 253 253 245 248 257 262 264 260 262 251 248 245 243 245
40 35 34 31 28 27 24 20 16 12 9 3 357 348 332 321 275 283 307 289 294 306 300 303 294 292 285 282 268 266 259 258 255 256 257 253 253 252 246 246 244 238 240
46 38 36 32 32 29 23 21 22 23 23 18 7 358 338 332 314 303 300 305 312 321 322 322 297 290 281 278 274 276 268 258 258 260 263 260 257 255 254 258 257 242 233
56 45 36 27 23 23 19 20 20 21 21 17 11 359 340 316 304 303 307 309 310 317 326 286 287 286 286 284 281 286 290 279 265 263 265 263 263 261 265 263 261 257 252
54 38 30 24 20 19 17 14 11 5 360 1 358 357 348 338 323 323 316 316 317 298 309 293 293 297 306 299 299 292 284 281 278 272 268 268 266 265 267 266 269 268 263
53 43 30 23 20 18 17 12 6 356 349 351 349 346 345 339 337 339 330 312 310 313 305 295 306 297 305 305 296 284 271 290 295 295 285 274 268 262 261 266 268 273 276
53 43 30 17 12 13 9 7 2 353 351 350 347 345 335 337 336 335 334 322 311 301 288 304 310 310 310 305 293 275 235 269 293 292 291 286 284 287 275 267 267 274 275
68 49 25 20 12 11 8 8 5 359 354 356 347 347 342 340 340 332 325 324 314 312 314 314 327 324 325 326 325 189 184 252 301 342 267 269 275 279 277 274 270 269 274
126 64 20 30 19 18 15 14 8 6 1 5 6 8 1 358 356 346 337 332 321 317 323 328 347 4 10 4 15 83 134 79 76 38 68 326 300 287 288 279 274 270 274
144 171 76 46 29 23 19 14 357 8 14 12 19 20 18 17 14 13 9 8 5 8 8 15 20 26 27 37 53 84 144 82 71 61 38 53 24 347 330 312 300 285 270
188 148 80 60 40 27 13 18 14 11 15 22 21 26 24 26 31 25 20 22 20 22 32 35 39 37 32 38 42 52 119 114 55 79 44 43 58 43 14 5 8 6 358
169 136 91 76 76 73 61 55 45 31 30 27 31 33 25 24 30 31 36 34 38 42 47 44 44 40 35 36 34 31 47 120 59 52 55 38 125 104 53 41 36 32 21
158 150 142 114 94 96 88 83 90 69 58 46 48 47 40 38 41 41 36 35 44 52 51 48 44 41 37 35 34 30 47 60 51 29 48 26 45 141 49 32 24 18 11
165 160 146 127 110 125 110 108 102 80 63 55 62 65 60 57 56 52 47 45 44 49 50 49 44 40 36 36 36 38 43 55 45 32 51 36 43 107 76 28 18 14 7
162 156 141 139 123 128 122 117 105 87 72 62 65 69 70 69 66 60 53 49 49 49 50 46 43 40 39 38 38 39 40 42 50 29 36 40 37 60 127 17 12 9 6
167 162 156 152 145 136 138 123 105 92 79 71 63 68 70 69 65 60 53 52 51 50 48 46 44 41 39 39 40 42 45 43 43 30 27 32 26 40 116 11 9 2 5
164 151 146 133 138 143 140 126 119 111 102 86 77 72 71 70 66 62 55 54 50 51 48 47 47 44 41 39 37 39 41 42 41 36 24 28 25 22 27 3 5 6 3